Regional Weather Roundup
Issued by NWS Upton, NY

Current Version | Previous Version | Text Only | Print | Product List | Glossary On
Versions: 1 2 3 4 5 6 7 8 9 10 11 12 13 14 15 16 17 18 19 20 21 22 23 24 25 26 27
000
ASUS41 KOKX 160208
RWROKX

REGIONAL WEATHER ROUNDUP
NATIONAL WEATHER SERVICE NEW YORK NY
1000 PM EDT SUN OCT 15 2017

NOTE: "FAIR" INDICATES FEW OR NO CLOUDS BELOW 12,000 FEET WITH NO
SIGNIFICANT WEATHER AND/OR OBSTRUCTIONS TO VISIBILITY.

NYZ071-072-176-178-NJZ106-104-160300-
NEW YORK CITY METRO AREA

CITY           SKY/WX    TMP DP  RH WIND       PRES   REMARKS
Central Park   CLOUDY    69  63  81 MISG      29.86R
Bronx Bot Gard   N/A    N/A N/A N/A S7        29.85R
LaGuardia APRT CLOUDY    70  63  78 SW14G25   29.82R
Kennedy INTL   PTCLDY    67  65  93 S13       29.85R
Breezy Point     N/A     66 N/A N/A SW7         N/A
Newark/Liberty MOCLDY    69  63  81 SW15G25   29.83R
Teterboro      CLOUDY    70  63  78 SW12      29.81R
$$

NYZ177-179-078>081-160300-
LONG ISLAND NEW YORK

CITY           SKY/WX    TMP DP  RH WIND       PRES   REMARKS
Jones Beach      N/A     66 N/A N/A SW10G17     N/A
Matinecock PT    N/A     68 N/A N/A SW16G22     N/A
Farmingdale    MOCLDY    68  65  90 SW16      29.84S
MacArthur/ISP  CLOUDY    68  66  93 S18G25    29.83S
Shirley        CLOUDY    70  67  90 SW15G25   29.84S
Mt Sinai Harb    N/A    N/A N/A N/A SW8G14      N/A
Westhampton    NOT AVBL
East Hampton   CLOUDY    65  64  94 SW14G24   29.83F
Montauk          N/A     67  65  93 SW12G21   29.84F
$$

NYZ052-065-067-160300-
HUDSON VALLEY

CITY           SKY/WX    TMP DP  RH WIND       PRES   REMARKS
White Plains   MOCLDY    69  62  78 VRB6      29.82S
Larchmont Harb   N/A     68 N/A N/A S18         N/A
Croton On Huds   N/A     70 N/A N/A S10G18      N/A
Newburgh       MOCLDY    66  63  88 W9        29.80F
Montgomery     CLOUDY    68  61  78 SW10G21   29.77F
Poughkeepsie   CLOUDY    68  60  75 SW8       29.77S
Albany         RAIN      65  62  90 W18       29.76R FOG
$$

NJZ001-105-106-008-010-013-015-019>022-104-160300-
NEW JERSEY

CITY           SKY/WX    TMP DP  RH WIND       PRES   REMARKS
Newark/Liberty MOCLDY    69  63  81 SW15G25   29.83R
Teterboro      CLOUDY    70  63  78 SW12      29.81R
Caldwell       CLOUDY    69  65  86 MISG      29.82S
Somerville     CLOUDY    68  65  90 S6        29.81F
Linden         MOCLDY    68  63  83 CALM      29.84S
Perth Amboy      N/A     68 N/A N/A W8          N/A
Sussex         CLOUDY    67  63  87 SW8G17    29.81F
Andover          N/A     67  63  87 SW7       29.83F
Trenton        PTCLDY    66  64  93 S6        29.83F
Millville      CLEAR     71  69  93 S6        29.86F
Atlantic City  PTCLDY    69  68  96 S12       29.87F
Wrightstown    CLEAR     66  64  94 SW12      29.84R
Toms River       N/A     67  65  93 S12       29.85F
Belmar         CLEAR     67  64  90 SW8       29.86S
$$

PAZ047>061-062-071-160300-
EASTERN PENNSYLVANIA

CITY           SKY/WX    TMP DP  RH WIND       PRES   REMARKS
Philadelphia   CLEAR     70  65  84 SW10      29.85R
Allentown      CLOUDY    67  62  84 CALM      29.82F
Scranton       CLOUDY    69  63  81 SW3       29.78F
$$

CTZ002-004>006-009-010-012-RIZ004-006-007-MAZ004-011-015-160300-
SOUTHERN NEW ENGLAND
 IN CT

CITY           SKY/WX    TMP DP  RH WIND       PRES   REMARKS
Bradley INTL   MOCLDY    69  61  75 SW16G24   29.76S
Hartford       CLEAR     69  62  78 SW9G22    29.77S
Danbury        CLOUDY    68  61  78 SW13      29.82S
Wtrbury/Oxford CLOUDY    66  61  84 VRB7      29.83S
Norwalk Harbor   N/A     68 N/A N/A SW17G23     N/A
Bridgeport     CLOUDY    70  63  78 SW21      29.81R
Meriden        MOCLDY    69  61  75 SW10G18   29.79S
New Haven      CLOUDY    69  64  84 SW14G20   29.81S
Chester        CLOUDY    68  64  88 VRB7G16   29.82S
Groton         CLOUDY    68  64  87 SW18      29.82R
Wilimantic     CLOUDY    70  64  81 SW16G24   29.79S

 IN RI

CITY           SKY/WX    TMP DP  RH WIND       PRES   REMARKS
Providence     CLOUDY    69  65  86 SW16G28   29.80S
Block Island   CLOUDY    66  63  90 SW21G28   29.84F
Westerly       CLOUDY    68  65  90 SW14      29.83F
 IN MA

CITY           SKY/WX    TMP DP  RH WIND       PRES   REMARKS
Boston         NOT AVBL
Worcester      CLOUDY    65  59  81 SW18G29   29.75S
Westfield      PTCLDY    68  62  81 S17G23    29.73F
Provincetown   CLOUDY    65  62  90 SW28G36   29.76F
Nantucket      CLOUDY    65  64  97 SW22      29.86F
$$

ANZ330-335-338-340-345-350-353-355-160300-
COASTAL MARINE OBSERVATIONS


STATION/POSITION TIME  SKY/WX   TEMP    WIND        PRES    VSBY  WAVE
                                AIR SEA DIR/SP/G                  HT/PER
                 (UTC)          (F)     (DEG/KT/KT) (MB)    (MI)  (FT/S)
NY HARB ENTRANCE 0150            67 67  210/ 21/ 25 1009.0          5/ 5
20 S FIRE ISLAND 0150            67 65  210/ 19/ 23 1010.7          6/ 5
GREAT SOUTH BAY  0130            67 66  210/ 19/ 21   N/A
15 E BARNEGAT LI 0130               68                N/A           6/ 6
HUDSON CANYON    0150            67 66  210/ 21/ 23 1012.0          6/ 6
KINGS POINT      0136            69 69  240/ 12/ 15 1010.8
EXECUTION ROCKS  0130            70     190/ 17/ 23   N/A
WESTERN LI SOUND 0049            70     220/ 19/ 25   N/A           2/ 3
CENTRAL LI SOUND NOT AVBL
EASTERN LI SOUND NOT AVBL
ROBBINS REEF     0142            69     230/ 12/ 16 1010.8
$$


>>>>>>>>>>>>>>>>>>>>>>>>>>>> KEY <<<<<<<<<<<<<<<<<<<<<<<<<<<
>                                                          <
>     SKY/WX - Sky Condition/Present Weather               <
>     TMP    - Temperature in Fahrenheit                   <
>     DP     - Dew Point in Fahrenheit                     <
>     RH     - Relative Humidity in Percent                <
>     WIND   - Direction (from) and Speed in MPH           <
>     PRES   - Mean Sea Level Pressure (inches of Hg)      <
>     WCI    - Wind Chill Index                            <
>     VSB    - VISIBILITY IN MILES                         <
>     HX     - HEAT INDEX                                  <
>     TC     - TEMPERATURE IN CELSIUS                      <
>     VRB    - VARIABLE WIND DIRECTION                     <
>                                                          <
>>>>>>>>>>>>>>>>>>>>>>>>>>>> KEY <<<<<<<<<<<<<<<<<<<<<<<<<<<




USA.gov is the U.S. government's official web portal to all federal, state and local government web resources and services.